COSMOS 2251 DEB, 34972

Orbit data source: Space-Track

COSMOS 2251 DEB, 34972 is space debris in LEO originally from a launch on Wed, 16 Jun 1993 UTC launched from the Plesetsk Missile And Space Complex (PKMTR). The debris from Iridium 33, an American commercial communications satellite, has been tracked extensively since its accidental collision with the defunct Russian satellite Cosmos 2251 in 2009. This event, occurring at high speed in low Earth orbit (LEO), generated thousands of pieces of space debris, significantly increasing the risk of further collisions. The Iridium 33 debris cloud has impacted space traffic management and orbital debris mitigation strategies, making it a subject of ongoing study in space situational awareness.

Loading next visibility...
Identifier
34972, 1993-036AFB
Orbit
LEO
Country
Flag of CISCIS
Related business
Manufacturer
Unknown
Mission
Spacecraft
Bus & Motor
Unknown
Mass
Unknown
Launch date (UTC)
1993-06-16 (33 years ago)
Launch vehicle
Unknown
Launch site
Plesetsk Missile And Space Complex (PKMTR)
Object type
Payload
Rocket body
Debris
Shape & HBR
Unknown shape, 0.1 m
Radar Cross Section
Small (<0.1 m²)

Expand to show TLE details & history
Last TLE update: 1 day ago

TLE from 1 day ago
0 COSMOS 2251 DEB
1 34972U 93036AFB 25351.20397664  .00006173  00000-0  95788-3 0  9996
2 34972  73.9877  41.1365 0033316 199.3746 219.2483 14.72955870877169
Epoch: 2025-12-17T04:53Z
TLE epoch observation values (Epoch: 2025-12-17T04:53:43.581Z)
Latitude
55.0474°
Longitude
-94.27059°
Altitude
678.589 km
Speed
7.513 km/s
True Right ascension
04h 20m 57s
True Declination
54° 53' 02"
Sunlit
Object was in full shadow at epoch
Visualization orbit readout
Latitude
Unknown
Longitude
Unknown
Altitude
Unknown
Speed
Unknown
Apparent Right ascension
Unknown
Apparent Declination
Unknown
Sunlit
N/A
Visualization observer readout
Local Sidereal Time
04:36:07
Azimuth
Unknown
Elevation
Unknown
Doppler factor
Unknown
Orbital elements
Apogee altitude
672.647 km
Perigee altitude
625.823 km
Semi-major axis
7,027.372 km
Eccentricity
0.00333
Inclination
73.9877°
RAAN
41.1365°
Arg. of periapsis
199.3746°
True anomaly
219.00754°
Mean anomaly
219.2483°
Eccentric anomaly
219.12784°
Mean motion
3.68429 °/min
Orbital period
97.71 mins
BSTAR
0.00095788

Documentation

Showing up to 5 results
|